This demonstration page uses our WeatherBlox Daily Observations layout. Learn more.

Left ArrowRight Arrow

36.17497, -115.13722

Hourly Observations for October 8, 2019

Temp ( °F °C ) Dew Point ( °F °C ) Humidity (%) Winds ( mph kmh ) Pressure ( in mb ) Visibility ( mi km ) Precip ( " mm )
12:53 am 00:53 Clear 64 17.8 27 -2.8 25 25 WNW 5 7 29.9 1012 10 16.0934 N/A
1:53 am 01:53 Clear 65 18.3 27 -2.8 24 24 WNW 6 9 29.89 1012 10 16.0934 N/A
2:53 am 02:53 Clear 65 18.3 24 -4.4 21 21 W 8 13 29.88 1012 10 16.0934 N/A
3:53 am 03:53 Clear 66 18.9 22 -5.6 19 19 N N/A 29.87 1012 10 16.0934 N/A
4:53 am 04:53 Clear 63 17.2 24 -4.4 23 23 N N/A 29.88 1012 10 16.0934 N/A
5:53 am 05:53 Clear 60 15.6 24 -4.4 25 25 VRB 3 6 29.89 1012 10 16.0934 N/A
6:53 am 06:53 Sunny 61 16.1 22 -5.6 22 22 W 3 6 29.89 1012 7 11.26538 N/A
7:53 am 07:53 Hazy 65 18.3 21 -6.1 19 19 NW 3 6 29.9 1013 5 8.0467 N/A
8:53 am 08:53 Sunny 71 21.7 24 -4.4 17 17 N N/A 29.91 1013 10 16.0934 N/A
9:53 am 09:53 Sunny 75 23.9 21 -6.1 13 13 N N/A 29.92 1013 10 16.0934 N/A
10:53 am 10:53 Sunny 79 26.1 22 -5.6 12 12 ESE 3 6 29.9 1012 10 16.0934 N/A
11:53 am 11:53 Sunny 81 27.2 21 -6.1 11 11 VRB 7 11 29.88 1012 10 16.0934 N/A
12:53 pm 12:53 Sunny 83 28.3 19 -7.2 9 9 SE 5 7 29.85 1011 10 16.0934 N/A
1:53 pm 13:53 Sunny 85 29.4 18 -7.8 8 8 E 3 6 29.81 1009 10 16.0934 N/A
2:53 pm 14:53 Sunny 88 31.1 19 -7.2 8 8 E 6 9 29.78 1009 10 16.0934 N/A
3:53 pm 15:53 Sunny 88 31.1 19 -7.2 8 8 SSE 3 6 29.76 1008 10 16.0934 N/A
4:53 pm 16:53 Sunny 89 31.7 20 -6.7 8 8 SE 6 9 29.74 1007 10 16.0934 N/A
5:53 pm 17:53 Sunny 87 30.6 20 -6.7 8 8 SE 7 11 29.74 1007 10 16.0934 N/A
6:53 pm 18:53 Clear 83 28.3 21 -6.1 10 10 SSE 7 11 29.74 1007 10 16.0934 N/A
7:53 pm 19:53 Clear 80 26.7 21 -6.1 11 11 N N/A 29.75 1007 10 16.0934 N/A
8:53 pm 20:53 Clear 77 25 25 -3.9 14 14 N N/A 29.74 1007 10 16.0934 N/A
9:53 pm 21:53 Clear 73 22.8 27 -2.8 18 18 N N/A 29.73 1007 10 16.0934 N/A
10:53 pm 22:53 Clear 69 20.6 26 -3.3 20 20 NW 7 11 29.73 1007 10 16.0934 N/A
11:53 pm 23:53 Clear 69 20.6 26 -3.3 20 20 WNW 3 6 29.71 1006 10 16.0934 N/A

Powered by AerisWeather